Regional Weather Roundup
Issued by NWS

Home | Current Version | Previous Version | Graphics & Text | Print | Product List | Glossary On
Versions: 1 2 3 4 5 6 7 8 9 10 11 12 13 14 15 16 17 18 19 20 21 22 23 24 25 26 27 28 29 30 31 32 33 34 35 36 37 38 39 40 41 42 43 44 45 46 47 48 49 50
000
ASUS43 KBIS 272210
RWRND

NORTH DAKOTA REGIONAL WEATHER ROUNDUP
NATIONAL WEATHER SERVICE BISMARCK ND
500 PM CDT WED AUG 27 2014

NOTE: "FAIR" INDICATES FEW OR NO CLOUDS BELOW 12,000 FEET WITH NO
SIGNIFICANT WEATHER AND/OR OBSTRUCTIONS TO VISIBILITY.


NDZ001>003-009>011-017-272300-
NORTHWEST NORTH DAKOTA

CITY           SKY/WX    TMP DP  RH WIND       PRES   REMARKS
WILLISTON      SUNNY     83  53  35 SE8       29.98F
MINOT          SUNNY     77  53  43 S10       30.02F
MINOT AFB      SUNNY     77  56  48 S9        30.02F
$$

NDZ018>021-031>035-040>046-272300-
SOUTHWEST NORTH DAKOTA

CITY           SKY/WX    TMP DP  RH WIND       PRES   REMARKS
BISMARCK       SUNNY     78  59  51 S10       30.06F
DICKINSON      MOSUNNY   77  54  44 S8        30.03F
GARRISON         N/A     77  59  53 S12       30.04F
HETTINGER ARPT MOSUNNY   75  55  49 SE9       30.07F
$$

NDZ004>008-012>016-024-026-027-054-272300-
NORTHEAST NORTH DAKOTA

CITY           SKY/WX    TMP DP  RH WIND       PRES   REMARKS
GRAND FORKS    MOSUNNY   74  55  51 SW6       30.10F
GRND FRKS AFB  SUNNY     74  58  58 SW8       30.11F
DEVILS LAKE    SUNNY     73  55  53 S9        30.07F
$$

NDZ022-023-025-028>030-036>039-047>053-272300-
SOUTHEAST NORTH DAKOTA

CITY           SKY/WX    TMP DP  RH WIND       PRES   REMARKS
FARGO          PTSUNNY   74  58  57 SE8       30.11F
JAMESTOWN      MOSUNNY   73  59  61 S9        30.09F
$$




USA.gov is the U.S. government's official web portal to all federal, state and local government web resources and services.